Time,TemperatureF,DewpointF,PressureIn,WindDirection,WindDirectionDegrees,WindSpeedMPH,WindSpeedGustMPH,Humidity,HourlyPrecipIn,Conditions,Clouds,dailyrainin,SoftwareType,DateUTC
2013-02-26 00:01:00,38.0,27.0,29.88,ENE,76,9.0,12.0,65,0.00,,,0.00,,2013-02-26 05:01:00,
2013-02-26 00:12:00,39.0,28.0,29.87,ENE,74,8.0,13.0,65,0.00,,,0.00,,2013-02-26 05:12:00,
2013-02-26 00:22:00,39.0,28.0,29.87,ENE,74,8.0,13.0,65,0.00,,,0.00,,2013-02-26 05:22:00,
2013-02-26 00:32:00,39.0,29.0,29.86,East,83,6.0,8.0,66,0.00,,,0.00,,2013-02-26 05:32:00,
2013-02-26 00:43:00,39.0,29.0,29.86,East,83,6.0,8.0,66,0.00,,,0.00,,2013-02-26 05:43:00,
2013-02-26 00:52:00,39.0,28.0,29.84,ENE,71,8.0,10.0,64,0.00,,,0.00,,2013-02-26 05:52:00,
2013-02-26 01:02:00,39.0,27.0,29.84,ENE,76,8.0,13.0,63,0.00,,,0.00,,2013-02-26 06:02:00,
2013-02-26 01:11:00,39.0,27.0,29.84,ENE,76,8.0,13.0,63,0.00,,,0.00,,2013-02-26 06:11:00,
2013-02-26 01:21:00,39.0,27.0,29.84,East,85,8.0,9.0,62,0.00,,,0.00,,2013-02-26 06:21:00,
2013-02-26 01:32:00,39.0,27.0,29.82,East,79,9.0,16.0,62,0.00,,,0.00,,2013-02-26 06:32:00,
2013-02-26 01:42:00,39.0,27.0,29.82,East,79,9.0,16.0,62,0.00,,,0.00,,2013-02-26 06:42:00,
2013-02-26 01:52:00,39.0,27.0,29.80,East,86,9.0,12.0,62,0.00,,,0.00,,2013-02-26 06:52:00,
2013-02-26 02:01:00,39.0,27.0,29.77,ENE,76,8.0,12.0,63,0.00,,,0.00,,2013-02-26 07:01:00,
2013-02-26 02:11:00,39.0,27.0,29.77,ENE,76,8.0,12.0,63,0.00,,,0.00,,2013-02-26 07:11:00,
2013-02-26 02:22:00,39.0,28.0,29.75,ENE,64,10.0,17.0,64,0.00,,,0.00,,2013-02-26 07:22:00,
2013-02-26 02:32:00,39.0,28.0,29.75,ENE,63,10.0,16.0,64,0.00,,,0.00,,2013-02-26 07:32:00,
2013-02-26 02:42:00,39.0,28.0,29.75,ENE,63,10.0,16.0,64,0.00,,,0.00,,2013-02-26 07:42:00,
2013-02-26 02:52:00,39.0,27.0,29.75,East,82,10.0,12.0,62,0.00,,,0.00,,2013-02-26 07:52:00,
2013-02-26 03:02:00,39.0,28.0,29.74,ENE,73,7.0,12.0,64,0.00,,,0.00,,2013-02-26 08:02:00,
2013-02-26 03:11:00,39.0,28.0,29.73,ENE,78,7.0,9.0,64,0.00,,,0.00,,2013-02-26 08:11:00,
2013-02-26 03:21:00,39.0,28.0,29.73,ENE,78,7.0,9.0,64,0.00,,,0.00,,2013-02-26 08:21:00,
2013-02-26 03:32:00,39.0,28.0,29.72,East,93,7.0,7.0,64,0.00,,,0.00,,2013-02-26 08:32:00,
2013-02-26 03:42:00,39.0,28.0,29.72,East,93,7.0,7.0,64,0.00,,,0.00,,2013-02-26 08:42:00,
2013-02-26 03:52:00,39.0,28.0,29.71,East,84,10.0,10.0,64,0.00,,,0.00,,2013-02-26 08:52:00,
2013-02-26 04:02:00,39.0,28.0,29.68,ENE,62,8.0,17.0,65,0.00,,,0.00,,2013-02-26 09:02:00,
2013-02-26 04:11:00,39.0,28.0,29.68,ENE,62,8.0,17.0,65,0.00,,,0.00,,2013-02-26 09:11:00,
2013-02-26 04:21:00,39.0,28.0,29.66,ENE,71,8.0,13.0,65,0.00,,,0.00,,2013-02-26 09:21:00,
2013-02-26 04:32:00,39.0,28.0,29.66,ENE,71,8.0,13.0,65,0.00,,,0.00,,2013-02-26 09:32:00,
2013-02-26 04:43:00,39.0,28.0,29.66,ENE,71,8.0,13.0,65,0.00,,,0.00,,2013-02-26 09:43:00,
2013-02-26 04:52:00,39.0,29.0,29.64,ENE,67,7.0,10.0,68,0.00,,,0.00,,2013-02-26 09:52:00,
2013-02-26 05:01:00,38.0,31.0,29.62,ENE,66,8.0,10.0,75,0.00,,,0.00,,2013-02-26 10:01:00,
2013-02-26 05:11:00,38.0,31.0,29.62,ENE,66,8.0,10.0,75,0.00,,,0.00,,2013-02-26 10:11:00,
2013-02-26 05:21:00,38.0,32.0,29.62,East,87,8.0,9.0,78,0.00,,,0.00,,2013-02-26 10:21:00,
2013-02-26 05:31:00,37.0,31.0,29.63,ENE,78,9.0,13.0,80,0.00,,,0.00,,2013-02-26 10:31:00,
2013-02-26 05:42:00,37.0,31.0,29.63,ENE,78,9.0,13.0,80,0.00,,,0.00,,2013-02-26 10:42:00,
2013-02-26 05:52:00,37.0,32.0,29.63,East,80,8.0,15.0,82,0.00,,,0.00,,2013-02-26 10:52:00,
2013-02-26 06:01:00,37.0,33.0,29.61,ENE,68,9.0,14.0,86,0.00,,,0.00,,2013-02-26 11:01:00,
2013-02-26 06:12:00,37.0,33.0,29.61,ENE,68,9.0,14.0,86,0.00,,,0.00,,2013-02-26 11:12:00,
2013-02-26 06:22:00,37.0,34.0,29.60,ENE,69,8.0,16.0,87,0.00,,,0.00,,2013-02-26 11:22:00,
2013-02-26 06:32:00,37.0,34.0,29.59,ENE,65,8.0,15.0,88,0.00,,,0.00,,2013-02-26 11:32:00,
2013-02-26 06:42:00,37.0,34.0,29.60,ENE,59,7.0,12.0,90,0.00,,,0.00,,2013-02-26 11:42:00,
2013-02-26 06:52:00,37.0,34.0,29.60,ENE,59,7.0,12.0,90,0.00,,,0.00,,2013-02-26 11:52:00,
2013-02-26 07:01:00,36.0,34.0,29.59,ENE,59,6.0,7.0,94,0.00,,,0.00,,2013-02-26 12:01:00,
2013-02-26 07:11:00,36.0,34.0,29.59,ENE,59,6.0,7.0,94,0.00,,,0.00,,2013-02-26 12:11:00,
2013-02-26 07:22:00,36.0,35.0,29.59,NE,50,5.0,10.0,96,0.00,,,0.00,,2013-02-26 12:22:00,
2013-02-26 07:32:00,36.0,35.0,29.57,NE,56,6.0,9.0,97,0.00,,,0.00,,2013-02-26 12:32:00,
2013-02-26 07:42:00,36.0,35.0,29.57,NE,56,6.0,9.0,97,0.00,,,0.00,,2013-02-26 12:42:00,
2013-02-26 07:53:00,36.0,35.0,29.57,NE,49,5.0,6.0,97,0.00,,,0.00,,2013-02-26 12:53:00,
2013-02-26 08:02:00,36.0,35.0,29.56,NNE,31,3.0,6.0,97,0.00,,,0.00,,2013-02-26 13:02:00,
2013-02-26 08:11:00,36.0,35.0,29.54,NE,54,8.0,9.0,98,0.00,,,0.00,,2013-02-26 13:11:00,
2013-02-26 08:22:00,36.0,35.0,29.54,NE,54,8.0,9.0,98,0.00,,,0.00,,2013-02-26 13:22:00,
2013-02-26 08:32:00,36.0,35.0,29.52,ENE,61,6.0,9.0,98,0.00,,,0.00,,2013-02-26 13:32:00,
2013-02-26 08:42:00,36.0,35.0,29.52,ENE,61,6.0,9.0,98,0.00,,,0.00,,2013-02-26 13:42:00,
2013-02-26 08:52:00,37.0,36.0,29.51,NE,53,8.0,9.0,97,0.00,,,0.00,,2013-02-26 13:52:00,
2013-02-26 09:01:00,37.0,36.0,29.49,ENE,60,6.0,9.0,97,0.00,,,0.00,,2013-02-26 14:01:00,
2013-02-26 09:11:00,37.0,36.0,29.49,ENE,60,6.0,9.0,97,0.00,,,0.00,,2013-02-26 14:11:00,
2013-02-26 09:21:00,38.0,37.0,29.51,East,85,6.0,9.0,96,0.00,,,0.00,,2013-02-26 14:21:00,
2013-02-26 09:32:00,38.0,37.0,29.51,East,99,7.0,9.0,96,0.00,,,0.00,,2013-02-26 14:32:00,
2013-02-26 09:42:00,38.0,37.0,29.51,East,99,7.0,9.0,96,0.00,,,0.00,,2013-02-26 14:42:00,
2013-02-26 09:52:00,38.0,37.0,29.52,ESE,104,6.0,8.0,96,0.00,,,0.00,,2013-02-26 14:52:00,
2013-02-26 10:02:00,38.0,37.0,29.52,East,89,5.0,6.0,97,0.00,,,0.00,,2013-02-26 15:02:00,
2013-02-26 10:11:00,38.0,37.0,29.52,East,89,5.0,6.0,97,0.00,,,0.00,,2013-02-26 15:11:00,
2013-02-26 10:22:00,38.0,37.0,29.51,East,86,8.0,10.0,97,0.00,,,0.00,,2013-02-26 15:22:00,
2013-02-26 10:32:00,38.0,37.0,29.49,ENE,67,6.0,8.0,98,0.00,,,0.00,,2013-02-26 15:32:00,
2013-02-26 10:42:00,38.0,37.0,29.49,ENE,67,6.0,8.0,98,0.00,,,0.00,,2013-02-26 15:42:00,
2013-02-26 10:52:00,38.0,37.0,29.49,East,80,6.0,6.0,98,0.00,,,0.00,,2013-02-26 15:52:00,
2013-02-26 11:01:00,38.0,38.0,29.49,ENE,76,7.0,9.0,99,0.00,,,0.00,,2013-02-26 16:01:00,
2013-02-26 11:11:00,38.0,38.0,29.49,ENE,76,7.0,9.0,99,0.00,,,0.00,,2013-02-26 16:11:00,
2013-02-26 11:22:00,38.0,37.0,29.48,ENE,70,7.0,10.0,98,0.00,,,0.00,,2013-02-26 16:22:00,
2013-02-26 11:32:00,39.0,38.0,29.47,ENE,71,6.0,8.0,98,0.00,,,0.00,,2013-02-26 16:32:00,
2013-02-26 11:42:00,39.0,38.0,29.47,ENE,71,6.0,8.0,98,0.00,,,0.00,,2013-02-26 16:42:00,
2013-02-26 11:52:00,39.0,38.0,29.46,ENE,77,9.0,13.0,98,0.00,,,0.00,,2013-02-26 16:52:00,
2013-02-26 12:01:00,39.0,39.0,29.46,ENE,68,7.0,9.0,99,0.00,,,0.00,,2013-02-26 17:01:00,
2013-02-26 12:11:00,40.0,40.0,29.45,East,81,5.0,7.0,99,0.00,,,0.00,,2013-02-26 17:11:00,
2013-02-26 12:21:00,40.0,40.0,29.45,East,81,5.0,7.0,99,0.00,,,0.00,,2013-02-26 17:21:00,
2013-02-26 12:32:00,40.0,40.0,29.44,ENE,77,7.0,9.0,99,0.00,,,0.00,,2013-02-26 17:32:00,
2013-02-26 12:42:00,40.0,40.0,29.44,ENE,77,7.0,9.0,99,0.00,,,0.00,,2013-02-26 17:42:00,
2013-02-26 12:52:00,41.0,41.0,29.44,East,79,3.0,5.0,99,0.00,,,0.00,,2013-02-26 17:52:00,
2013-02-26 13:02:00,41.0,41.0,29.43,ENE,73,7.0,8.0,99,0.00,,,0.00,,2013-02-26 18:02:00,
2013-02-26 13:12:00,41.0,41.0,29.43,ENE,73,7.0,8.0,99,0.00,,,0.00,,2013-02-26 18:12:00,
2013-02-26 13:21:00,41.0,41.0,29.42,East,95,5.0,8.0,99,0.00,,,0.00,,2013-02-26 18:21:00,
2013-02-26 13:32:00,42.0,42.0,29.41,East,85,7.0,9.0,99,0.00,,,0.00,,2013-02-26 18:32:00,
2013-02-26 13:42:00,42.0,42.0,29.41,East,85,7.0,9.0,99,0.00,,,0.00,,2013-02-26 18:42:00,
2013-02-26 13:52:00,42.0,42.0,29.40,ENE,78,5.0,7.0,99,0.00,,,0.00,,2013-02-26 18:52:00,
2013-02-26 14:01:00,42.0,42.0,29.39,East,83,2.0,3.0,99,0.00,,,0.00,,2013-02-26 19:01:00,
2013-02-26 14:11:00,42.0,42.0,29.39,East,83,2.0,3.0,99,0.00,,,0.00,,2013-02-26 19:11:00,
2013-02-26 14:22:00,43.0,43.0,29.39,East,84,3.0,6.0,99,0.00,,,0.00,,2013-02-26 19:22:00,
2013-02-26 14:32:00,43.0,43.0,29.39,East,90,3.0,5.0,99,0.00,,,0.00,,2013-02-26 19:32:00,
2013-02-26 14:42:00,43.0,43.0,29.39,East,90,3.0,5.0,99,0.00,,,0.00,,2013-02-26 19:42:00,
2013-02-26 14:52:00,43.0,43.0,29.38,East,91,2.0,3.0,99,0.00,,,0.00,,2013-02-26 19:52:00,
2013-02-26 15:01:00,43.0,43.0,29.38,East,91,2.0,5.0,99,0.00,,,0.00,,2013-02-26 20:01:00,
2013-02-26 15:11:00,43.0,43.0,29.38,East,91,2.0,5.0,99,0.00,,,0.00,,2013-02-26 20:11:00,
2013-02-26 15:21:00,43.0,43.0,29.38,East,94,2.0,2.0,99,0.00,,,0.00,,2013-02-26 20:21:00,
2013-02-26 15:32:00,44.0,44.0,29.38,ESE,116,0.0,0.0,99,0.00,,,0.00,,2013-02-26 20:32:00,
2013-02-26 15:41:00,44.0,44.0,29.38,ESE,116,0.0,0.0,99,0.00,,,0.00,,2013-02-26 20:41:00,
2013-02-26 15:52:00,44.0,44.0,29.38,West,280,0.0,0.0,99,0.00,,,0.00,,2013-02-26 20:52:00,
2013-02-26 16:01:00,44.0,44.0,29.38,West,261,0.0,0.0,99,0.00,,,0.00,,2013-02-26 21:01:00,
2013-02-26 16:11:00,45.0,45.0,29.39,SSE,155,0.0,1.0,99,0.00,,,0.00,,2013-02-26 21:11:00,
2013-02-26 16:21:00,45.0,45.0,29.39,SSE,155,0.0,1.0,99,0.00,,,0.00,,2013-02-26 21:21:00,
2013-02-26 16:31:00,45.0,45.0,29.40,WSW,247,2.0,3.0,99,0.00,,,0.00,,2013-02-26 21:31:00,
2013-02-26 16:41:00,45.0,45.0,29.40,WSW,247,2.0,3.0,99,0.00,,,0.00,,2013-02-26 21:41:00,
2013-02-26 16:51:00,45.0,45.0,29.40,SW,236,3.0,8.0,99,0.00,,,0.00,,2013-02-26 21:51:00,
2013-02-26 17:01:00,44.0,44.0,29.40,South,183,2.0,3.0,99,0.00,,,0.00,,2013-02-26 22:01:00,
2013-02-26 17:11:00,45.0,45.0,29.40,SSE,159,1.0,2.0,99,0.00,,,0.00,,2013-02-26 22:11:00,
2013-02-26 17:21:00,45.0,45.0,29.40,SSE,159,1.0,2.0,99,0.00,,,0.00,,2013-02-26 22:21:00,
2013-02-26 17:32:00,45.0,45.0,29.41,SW,232,1.0,2.0,99,0.00,,,0.00,,2013-02-26 22:32:00,
2013-02-26 17:41:00,45.0,45.0,29.41,SW,232,1.0,2.0,99,0.00,,,0.00,,2013-02-26 22:41:00,
2013-02-26 17:52:00,45.0,45.0,29.41,West,265,2.0,5.0,99,0.00,,,0.00,,2013-02-26 22:52:00,
2013-02-26 18:01:00,44.0,44.0,29.42,WSW,255,6.0,8.0,99,0.00,,,0.00,,2013-02-26 23:01:00,
2013-02-26 18:11:00,44.0,44.0,29.42,WSW,255,6.0,8.0,99,0.00,,,0.00,,2013-02-26 23:11:00,
2013-02-26 18:21:00,44.0,44.0,29.42,WSW,247,2.0,5.0,99,0.00,,,0.00,,2013-02-26 23:21:00,
2013-02-26 18:31:00,44.0,44.0,29.42,WSW,246,3.0,6.0,99,0.00,,,0.00,,2013-02-26 23:31:00,
2013-02-26 18:41:00,44.0,44.0,29.42,WSW,246,3.0,6.0,99,0.00,,,0.00,,2013-02-26 23:41:00,
2013-02-26 18:52:00,44.0,44.0,29.43,WSW,238,2.0,3.0,99,0.00,,,0.00,,2013-02-26 23:52:00,
2013-02-26 19:01:00,45.0,45.0,29.45,SW,236,1.0,5.0,99,0.00,,,0.00,,2013-02-27 00:01:00,
2013-02-26 19:11:00,45.0,45.0,29.45,SW,236,1.0,5.0,99,0.00,,,0.00,,2013-02-27 00:11:00,
2013-02-26 19:22:00,44.0,44.0,29.45,WSW,241,3.0,9.0,99,0.00,,,0.00,,2013-02-27 00:22:00,
2013-02-26 19:32:00,44.0,44.0,29.46,West,261,3.0,7.0,99,0.00,,,0.00,,2013-02-27 00:32:00,
2013-02-26 19:42:00,44.0,44.0,29.46,West,261,3.0,7.0,99,0.00,,,0.00,,2013-02-27 00:42:00,
2013-02-26 19:52:00,44.0,44.0,29.47,WSW,258,5.0,9.0,99,0.00,,,0.00,,2013-02-27 00:52:00,
2013-02-26 20:01:00,43.0,43.0,29.48,West,275,6.0,9.0,99,0.00,,,0.00,,2013-02-27 01:01:00,
2013-02-26 20:11:00,43.0,43.0,29.48,West,275,6.0,9.0,99,0.00,,,0.00,,2013-02-27 01:11:00,
2013-02-26 20:22:00,43.0,43.0,29.48,WSW,252,3.0,5.0,99,0.00,,,0.00,,2013-02-27 01:22:00,
2013-02-26 20:32:00,43.0,43.0,29.48,West,268,3.0,9.0,99,0.00,,,0.00,,2013-02-27 01:32:00,
2013-02-26 20:42:00,43.0,43.0,29.48,West,268,3.0,9.0,99,0.00,,,0.00,,2013-02-27 01:42:00,
2013-02-26 20:52:00,43.0,43.0,29.48,West,262,5.0,8.0,99,0.00,,,0.00,,2013-02-27 01:52:00,
2013-02-26 21:01:00,43.0,43.0,29.49,WSW,244,5.0,6.0,99,0.00,,,0.00,,2013-02-27 02:01:00,
2013-02-26 21:15:00,43.0,43.0,29.49,WSW,244,5.0,6.0,99,0.00,,,0.00,,2013-02-27 02:15:00,
2013-02-26 21:23:00,43.0,43.0,29.49,SW,227,2.0,3.0,99,0.00,,,0.00,,2013-02-27 02:23:00,
2013-02-26 21:32:00,43.0,43.0,29.49,SW,220,3.0,3.0,99,0.00,,,0.00,,2013-02-27 02:32:00,
2013-02-26 21:42:00,43.0,43.0,29.49,SW,220,3.0,3.0,99,0.00,,,0.00,,2013-02-27 02:42:00,
2013-02-26 21:52:00,43.0,43.0,29.50,WSW,239,2.0,3.0,99,0.00,,,0.00,,2013-02-27 02:52:00,
2013-02-26 22:02:00,43.0,43.0,29.51,WSW,250,3.0,5.0,99,0.00,,,0.00,,2013-02-27 03:02:00,
2013-02-26 22:11:00,43.0,43.0,29.51,SW,232,2.0,5.0,99,0.00,,,0.00,,2013-02-27 03:11:00,
2013-02-26 22:22:00,43.0,43.0,29.51,SW,232,2.0,5.0,99,0.00,,,0.00,,2013-02-27 03:22:00,
2013-02-26 22:32:00,43.0,43.0,29.51,WSW,243,6.0,9.0,99,0.00,,,0.00,,2013-02-27 03:32:00,
2013-02-26 22:42:00,43.0,43.0,29.51,WSW,243,6.0,9.0,99,0.00,,,0.00,,2013-02-27 03:42:00,
2013-02-26 22:52:00,43.0,43.0,29.51,SW,235,5.0,12.0,99,0.00,,,0.00,,2013-02-27 03:52:00,
2013-02-26 23:02:00,42.0,41.0,29.51,SW,230,3.0,8.0,97,0.00,,,0.00,,2013-02-27 04:02:00,
2013-02-26 23:11:00,42.0,41.0,29.51,SW,230,3.0,8.0,97,0.00,,,0.00,,2013-02-27 04:11:00,
2013-02-26 23:22:00,42.0,41.0,29.51,WSW,242,3.0,6.0,97,0.00,,,0.00,,2013-02-27 04:22:00,
2013-02-26 23:32:00,42.0,41.0,29.51,WSW,254,3.0,6.0,96,0.00,,,0.00,,2013-02-27 04:32:00,
2013-02-26 23:42:00,42.0,41.0,29.51,WSW,254,3.0,6.0,96,0.00,,,0.00,,2013-02-27 04:42:00,
2013-02-26 23:52:00,42.0,41.0,29.52,SW,227,7.0,14.0,96,0.00,,,0.00,,2013-02-27 04:52:00,